• MPC Preparation (Info)

  • MPEC 2022-L99 : 2022 LN3

    The following Minor Planet Electronic Circular may be linked-to from your own Web pages, but must not otherwise be redistributed electronically.

    A form allowing access to any MPEC is at the bottom of this page.


    Read MPEC 2022-L98 Read MPEC 2022-L100


    M.P.E.C. 2022-L99                                 Issued 2022 June 14, 04:01 UT
    
         The Minor Planet Electronic Circulars contain information on unusual
             minor planets and routine data on comets.  They are published
        on behalf of Division F of the International Astronomical Union by the
              Minor Planet Center, Smithsonian Astrophysical Observatory,
                              Cambridge, MA 02138, U.S.A.
    
                 Prepared using the Tamkin Foundation Computer Network
    
                                  MPC@CFA.HARVARD.EDU
                URL https://www.minorplanetcenter.net/    ISSN 1523-6714
    
                                    2022 LN3                                 
    
    
    Observations:
         K22L03N  C2022 06 01.51423320 05 20.533-02 55 09.83         20.49GVEL099F52
         K22L03N  C2022 06 01.52517920 05 23.420-02 55 48.37         20.63GVEL099F52
         K22L03N  C2022 06 01.53607320 05 26.270-02 56 26.75         20.48GVEL099F52
         K22L03N  C2022 06 01.54700320 05 29.126-02 57 05.20         20.32GVEL099F52
         K22L03N* C2022 06 11.53939820 50 00.035-13 14 03.80         20.61wUEL099F52
         K22L03N  C2022 06 11.55094920 50 02.756-13 14 47.25         20.75wUEL099F52
         K22L03N  C2022 06 11.57416720 50 08.220-13 16 15.31         20.84wUEL099F52
         K22L03N KC2022 06 12.36088620 53 26.720-14 05 33.60         20.65GVEL099I52
         K22L03N KC2022 06 12.36271320 53 27.160-14 05 40.40         20.21GVEL099I52
         K22L03N KC2022 06 12.36453720 53 27.580-14 05 46.80               VEL099I52
         K22L03N KC2022 06 12.36636220 53 28.060-14 05 54.40               VEL099I52
         K22L03N KC2022 06 13.14862 20 56 39.69 -14 54 03.5          20.5 GVEL099M21
         K22L03N DC2022 06 13.34533 20 57 30.36 -15 06 51.0          20.7 GVEL099695
         K22L03N DC2022 06 13.34991 20 57 31.40 -15 07 08.4          20.6 GVEL099695
         K22L03N DC2022 06 13.35450 20 57 32.47 -15 07 25.5          21.0 GVEL099695
         K22L03N KC2022 06 13.38796020 57 40.160-15 09 30.90         19.85GVEL099G84
         K22L03N KC2022 06 13.39119920 57 40.900-15 09 43.20         20.72GVEL099G84
         K22L03N KC2022 06 13.39445620 57 41.650-15 09 54.90               VEL099G84
         K22L03N KC2022 06 13.39770320 57 42.450-15 10 07.60               VEL099G84
    
    Observer details:
    695 Kitt Peak.  Observer R. A. Mastaler.  2.3-m f/9 reflector + CCD.
    F52 Pan-STARRS 2, Haleakala.  Observers J. Bulger, K. Chambers, T. Dukes, T.
        Lowe, A. Schultz, I. Smith.  Measurers S. Chastel, M. Huber, Y.
        Ramanjooloo, R. Wainscoat, R. Weryk, K. Chambers, T. de Boer, J. Fairlamb,
        H. Gao, C.-C. Lin, E. Magnier.  1.8-m Ritchey-Chretien + CCD.
    G84 Mount Lemmon SkyCenter.  Observer G. J. Leonard.  Measurers E. J.
        Christensen, D. Fay, J. B. Fazekas, D. C. Fuls, A. R. Gibbs, A. D. Grauer,
        H. Groeller, J. K. Hogan, R. A. Kowalski, S. M. Larson, G. J. Leonard, D.
        Rankin, R. L. Seaman, A. Serrano, F. C. Shelly, K. W. Wierzchos.  0.8-m
        f/7.0 reflector + CMOS.
    I52 Steward Observatory, Mt. Lemmon Station.  Observers J. B. Fazekas, G. J.
        Leonard.  Measurers E. J. Christensen, D. Fay, J. B. Fazekas, D. C. Fuls,
        A. R. Gibbs, A. D. Grauer, H. Groeller, J. K. Hogan, R. A. Kowalski, S. M.
        Larson, G. J. Leonard, D. Rankin, R. L. Seaman, A. Serrano, F. C. Shelly,
        K. W. Wierzchos.  1.0-m prime focus + CCD.
    M21 Schiaparelli Southern Observatory, Hakos.  Observers A. Aletti, F.
        Bellini, L. Buzzi, G. Galli.  Measurer L. Buzzi.  0.36-m f/8.4 reflector +
        CCD.
    
    Orbital elements:
    2022 LN3                                                 Earth MOID = 0.1411 AU
    Epoch 2022 Aug. 9.0 TT = JDT 2459800.5                  Veres                   
    M  16.96044              (2000.0)            P               Q                  
    n   0.24362313     Peri.  165.61211     -0.21497236     +0.94828314             
    a   2.5389669      Node    91.57035     -0.91754010     -0.11419346             
    e   0.5470187      Incl.   13.51138     -0.33452510     -0.29617383             
    P   4.05           H   22.17          G   0.15           U   8                  
    Residuals in seconds of arc
    220601 F52  0.1-  0.1-    220612 I52  0.3-  0.3-    220613 695  0.3+  0.6-
    220601 F52  0.1+  0.0     220612 I52  0.2-  0.2-    220613 G84  0.2-  0.1-
    220601 F52  0.0   0.0     220612 I52  0.4-  0.3+    220613 G84  0.3-  0.3-
    220601 F52  0.1-  0.1+    220612 I52  0.4+  0.4-    220613 G84  0.3-  0.2+
    220611 F52  0.0   0.1+    220613 M21  0.5+  1.0-    220613 G84  0.5+  0.3-
    220611 F52  0.0   0.2+    220613 695  0.7+  0.6-
    220611 F52  0.1-  0.4-    220613 695  0.2+  0.8-
    
    Ephemeris:
    2022 LN3                 a,e,i = 2.54, 0.55, 14                  q = 1.1501
    Date    TT    R. A. (2000) Decl.     Delta      r    Elong.  Phase     V
    2022 05 15    18 44 43.5 +10 31 30   0.2510  1.1663   122.9    46.7    21.3
    ...
    2022 05 30    19 53 37.6 -00 30 51   0.2136  1.1502   125.2    46.0    20.9
    ...
    2022 06 07    20 30 17.9 -08 28 41   0.2074  1.1528   127.5    44.3    20.8
    ...
    2022 06 13    20 56 03.6 -14 44 51   0.2095  1.1598   129.4    42.6    20.8
    2022 06 14    21 00 08.1 -15 46 51   0.2104  1.1613   129.7    42.3    20.8
    2022 06 15    21 04 08.2 -16 48 21   0.2114  1.1630   130.0    42.0    20.8
    ...
    2022 06 21    21 26 23.3 -22 41 57   0.2206  1.1756   132.1    39.9    20.8
    ...
    2022 06 29    21 50 34.6 -29 36 09   0.2400  1.1985   135.1    36.8    21.0
    ...
    2022 07 14    22 17 22.7 -39 04 09   0.2940  1.2581   140.8    30.7    21.3
    
    M. P. C. Staff               (C) Copyright 2022 MPC           M.P.E.C. 2022-L99
    


    Read MPEC 2022-L98 Read MPEC 2022-L100


    MPEC number:

    Enter an MPEC number in one of the following forms:

    • 1997-B01 (the full form)
    • J97B01 (the packed version of the full form)
    • B01 (the abbreviated form)